Location: Unspecified
(0.0000°N, 0.0000°E)
Time: 17:39:38
(UTC+00:00)

Vanguard 3 - Pass Details

Date: 05 February 2023
Orbit: 509 x 3249 km, 33.3° (Epoch: 20 March)

Event Time Altitude Azimuth Distance (km) Brightness Sun altitude
Rises 00:39:58 0° 315° (NW) 6,572 - -72.7°
Reaches altitude 10° 00:44:10 10° 319° (NW) 5,795 - -72.3°
Maximum altitude 01:03:02 59° 35° (NE) 3,571 - -69.9°
Exits shadow 01:14:00 30° 99° (E) 4,363 10.8 -68.2°
Drops below altitude 10° 01:20:26 10° 110° (ESE) 5,438 11.5 -67.1°
Sets 01:24:10 0° 114° (ESE) 6,170 12.0 -66.4°
